Location: Pasarilla del Rebollar
(40.6790°N, 5.0062°W)
Time: 11:12:26
(UTC+00:00)

Cosmos 990 Rocket - Pass Details

Date: 22 April 2026
Orbit: 743 x 763 km, 74.0° (Epoch: 15 May)

Event Time Altitude Azimuth Distance (km) Brightness Sun altitude
Rises 03:46:56 0° 332° (NNW) 3,192 7.3 -18.5°
Reaches altitude 10° 03:49:26 10° 324° (NW) 2,266 6.4 -18.2°
Maximum altitude 03:54:05 36° 259° (WSW) 1,165 4.5 -17.4°
Enters shadow 03:55:44 29° 221° (SW) 1,350 4.7 -17.2°
